Location: La Oliva
(42.2466°N, 2.9955°E)
Time: 08:12:12
(UTC+00:00)

FALCON 9 DEB - Pass Details

Date: 22 April 2021
Orbit: 368 x 387 km, 53.0° (Epoch: 07 May)

Event Time Altitude Azimuth Distance (km) Brightness Sun altitude
Rises 20:35:45 0° 251° (WSW) 2,209 7.1 -20.0°
Reaches altitude 10° 20:37:52 10° 260° (W) 1,362 6.1 -20.3°
Maximum altitude 20:40:43 37° 330° (NNW) 596 4.3 -20.7°
Enters shadow 20:42:13 22° 25° (NNE) 881 4.8 -20.9°
